#timestamp,LO_Frequency,Hit,Temp,Hum 
1480078815.9,286046965.7,N,0.0,0.0
1480078835.7,286046964.7,N,0.0,0.0
1480078855.5,286046965.0,N,0.0,0.0
1480078875.4,286046964.5,N,0.0,0.0
1480078895.2,286046967.5,N,0.0,0.0
1480078915.0,286046966.6,N,0.0,0.0
1480078916.0,286046966.6,N,0.0,0.0
1480078935.8,286046969.2,N,0.0,0.0
1480078955.6,286046966.2,N,0.0,0.0
1480078975.5,286046966.1,N,0.0,0.0
1480078995.3,286046969.2,N,0.0,0.0
1480079015.1,286046969.1,N,0.0,0.0
1480079035.9,286046969.1,N,0.0,0.0
1480079055.7,286046968.6,N,0.0,0.0
1480079075.6,286046968.0,N,0.0,0.0
1480079095.4,286046970.7,N,0.0,0.0
1480079115.2,286046970.3,N,0.0,0.0
1480079135.1,286046970.2,N,0.0,0.0
1480079136.0,286046970.2,N,0.0,0.0
1480079155.8,286046970.5,N,0.0,0.0
1480079175.6,286046969.9,N,0.0,0.0
1480079195.5,286046970.3,N,0.0,0.0
1480079215.3,286046969.6,N,0.0,0.0
1480079235.2,286046969.5,N,0.0,0.0
1480079255.9,286046969.4,N,0.0,0.0
1480079275.7,286046969.4,N,0.0,0.0
1480079295.6,286046972.4,N,0.0,0.0
1480079315.4,286046972.1,N,0.0,0.0
1480079335.2,286046971.3,N,0.0,0.0
1480079355.1,286046971.3,N,0.0,0.0
1480079356.0,286046971.3,N,0.0,0.0
1480079375.8,286046973.5,N,0.0,0.0
1480079395.7,286046970.9,N,0.0,0.0
1480079415.5,286046973.3,N,0.0,0.0
1480079435.3,286046973.4,N,0.0,0.0
1480079455.2,286046972.8,N,0.0,0.0
1480079475.0,286046972.7,N,0.0,0.0
1480079475.9,286046972.7,N,0.0,0.0
1480079495.8,286046972.5,N,0.0,0.0
1480079515.6,286046972.6,N,0.0,0.0
1480079535.4,286046972.5,N,0.0,0.0
1480079555.3,286046972.6,N,0.0,0.0
1480079575.1,286046973.0,N,0.0,0.0
1480079595.9,286046972.7,N,0.0,0.0
1480079615.7,286046973.3,N,0.0,0.0
1480079635.5,286046974.0,N,0.0,0.0
1480079655.4,286046971.0,N,0.0,0.0
1480079675.2,286046974.0,N,0.0,0.0
1480079695.0,286046973.6,N,0.0,0.0
1480079695.9,286046973.6,N,0.0,0.0
1480079715.8,286046973.9,N,0.0,0.0
1480079735.6,286046974.0,N,0.0,0.0
1480079755.5,286046973.9,N,0.0,0.0
1480079775.3,286046974.0,N,0.0,0.0
1480079795.1,286046970.9,N,0.0,0.0
1480079815.9,286046973.8,N,0.0,0.0
1480079835.7,286046971.0,N,0.0,0.0
1480079855.5,286046973.9,N,0.0,0.0
1480079875.4,286046971.0,N,0.0,0.0
1480079895.2,286046971.2,N,0.0,0.0
1480079915.1,286046974.0,N,0.0,0.0
1480079916.0,286046974.0,N,0.0,0.0
1480079935.8,286046973.1,N,0.0,0.0
1480079955.6,286046973.3,N,0.0,0.0
1480079975.5,286046973.3,N,0.0,0.0
1480079995.3,286046971.5,N,0.0,0.0
1480080015.2,286046971.1,N,0.0,0.0
1480080035.9,286046974.0,N,0.0,0.0
1480080055.7,286046972.7,N,0.0,0.0
1480080075.6,286046972.5,N,0.0,0.0
1480080095.4,286046975.0,N,0.0,0.0
1480080115.2,286046974.6,N,0.0,0.0
1480080135.1,286046977.2,N,0.0,0.0
1480080136.0,286046977.2,N,0.0,0.0
1480080155.8,286046974.1,N,0.0,0.0
1480080175.7,286046975.0,N,0.0,0.0
1480080195.5,286046975.4,N,0.0,0.0
1480080215.3,286046974.1,N,0.0,0.0
1480080235.2,286046974.6,N,0.0,0.0
1480080255.0,286046975.0,N,0.0,0.0
1480080255.9,286046975.0,N,0.0,0.0
1480080275.8,286046974.6,N,0.0,0.0
1480080295.6,286046974.6,N,0.0,0.0
1480080315.4,286046974.7,N,0.0,0.0
1480080335.3,286046976.8,N,0.0,0.0
1480080355.1,286046976.3,N,0.0,0.0
1480080375.8,286046976.5,N,0.0,0.0
1480080395.7,286046975.7,N,0.0,0.0
1480080415.5,286046978.5,N,0.0,0.0
1480080435.4,286046978.1,N,0.0,0.0
1480080455.2,286046977.7,N,0.0,0.0
1480080475.0,286046978.5,N,0.0,0.0
1480080475.9,286046978.5,N,0.0,0.0
1480080495.8,286046979.9,N,0.0,0.0
1480080515.6,286046979.9,N,0.0,0.0
1480080535.5,286046979.1,N,0.0,0.0
1480080555.3,286046981.3,N,0.0,0.0
1480080575.1,286046981.7,N,0.0,0.0
1480080595.9,286046981.2,N,0.0,0.0
1480080615.7,286046980.8,N,0.0,0.0
1480080635.5,286046979.5,N,0.0,0.0
1480080655.4,286046981.3,N,0.0,0.0
1480080675.2,286046981.5,N,0.0,0.0
1480080695.1,286046979.1,N,0.0,0.0
1480080696.0,286046979.1,N,0.0,0.0
1480080715.8,286046979.6,N,0.0,0.0
1480080735.6,286046980.0,N,0.0,0.0
1480080755.5,286046979.0,N,0.0,0.0
1480080775.3,286046978.9,N,0.0,0.0
1480080795.1,286046979.8,N,0.0,0.0
1480080815.9,286046978.9,N,0.0,0.0
1480080835.7,286046981.0,N,0.0,0.0
1480080855.6,286046982.7,N,0.0,0.0
1480080875.4,286046983.6,N,0.0,0.0
1480080895.2,286046981.2,N,0.0,0.0
1480080915.1,286046981.2,N,0.0,0.0
1480080916.0,286046981.2,N,0.0,0.0
1480080935.8,286046981.6,N,0.0,0.0
1480080955.7,286046979.8,N,0.0,0.0
1480080975.5,286046980.1,N,0.0,0.0
1480080995.3,286046980.4,N,0.0,0.0
1480081015.2,286046980.3,N,0.0,0.0
1480081035.0,286046980.3,N,0.0,0.0
1480081035.9,286046980.3,N,0.0,0.0
1480081055.8,286046980.1,N,0.0,0.0
1480081075.6,286046978.9,N,0.0,0.0
1480081095.4,286046981.4,N,0.0,0.0
1480081115.3,286046982.0,N,0.0,0.0
1480081135.1,286046978.9,N,0.0,0.0
1480081155.8,286046981.7,N,0.0,0.0
1480081175.7,286046982.0,N,0.0,0.0
1480081195.5,286046981.9,N,0.0,0.0
1480081215.4,286046980.6,N,0.0,0.0
1480081235.2,286046983.2,N,0.0,0.0
1480081255.0,286046983.6,N,0.0,0.0
1480081255.9,286046983.6,N,0.0,0.0
1480081275.8,286046980.6,N,0.0,0.0
1480081295.6,286046980.9,N,0.0,0.0
1480081315.5,286046981.3,N,0.0,0.0
1480081335.3,286046983.2,N,0.0,0.0
1480081355.1,286046981.0,N,0.0,0.0
1480081375.9,286046983.4,N,0.0,0.0
1480081395.7,286046981.0,N,0.0,0.0
1480081415.5,286046981.8,N,0.0,0.0
1480081435.4,286046981.7,N,0.0,0.0
1480081455.2,286046981.1,N,0.0,0.0
1480081475.1,286046981.5,N,0.0,0.0
1480081476.0,286046981.5,N,0.0,0.0
1480081495.8,286046979.0,N,0.0,0.0
1480081515.6,286046979.3,N,0.0,0.0
1480081535.5,286046982.0,N,0.0,0.0
1480081555.3,286046979.2,N,0.0,0.0
1480081575.2,286046979.5,N,0.0,0.0
1480081595.9,286046979.1,N,0.0,0.0
1480081615.7,286046979.8,N,0.0,0.0
1480081635.6,286046979.5,N,0.0,0.0
1480081655.4,286046978.9,N,0.0,0.0
1480081675.2,286046981.6,N,0.0,0.0
1480081695.1,286046981.5,N,0.0,0.0
1480081696.0,286046981.5,N,0.0,0.0
1480081715.8,286046981.0,N,0.0,0.0
1480081735.7,286046983.3,N,0.0,0.0
1480081755.5,286046981.2,N,0.0,0.0
1480081775.3,286046980.8,N,0.0,0.0
1480081795.2,286046983.5,N,0.0,0.0
1480081815.0,286046984.0,N,0.0,0.0
1480081815.9,286046984.0,N,0.0,0.0
1480081835.8,286046986.5,N,0.0,0.0
1480081855.6,286046985.9,N,0.0,0.0
1480081875.4,286046988.3,N,0.0,0.0
1480081895.3,286046987.2,N,0.0,0.0
1480081915.1,286046987.6,N,0.0,0.0
1480081935.9,286046985.3,N,0.0,0.0
1480081955.7,286046986.9,N,0.0,0.0
1480081975.5,286046989.0,N,0.0,0.0
1480081995.4,286046991.4,N,0.0,0.0
1480082015.2,286046990.5,N,0.0,0.0
1480082035.0,286046992.9,N,0.0,0.0
1480082035.9,286046992.9,N,0.0,0.0
1480082055.8,286046993.2,N,0.0,0.0
1480082075.6,286046993.0,N,0.0,0.0
1480082095.5,286046991.8,N,0.0,0.0
1480082115.3,286046991.4,N,0.0,0.0
1480082135.1,286046989.7,N,0.0,0.0
1480082155.9,286046989.4,N,0.0,0.0
1480082175.7,286046987.3,N,0.0,0.0
1480082195.6,286046987.5,N,0.0,0.0
1480082215.4,286046987.4,N,0.0,0.0
1480082235.2,286046989.3,N,0.0,0.0
1480082255.1,286046989.6,N,0.0,0.0
1480082256.0,286046989.6,N,0.0,0.0
1480082275.8,286046989.9,N,0.0,0.0
1480082295.6,286046987.7,N,0.0,0.0
1480082315.5,286046988.0,N,0.0,0.0
1480082335.3,286046985.4,N,0.0,0.0
1480082355.2,286046986.2,N,0.0,0.0
1480082375.9,286046986.8,N,0.0,0.0
1480082395.7,286046984.1,N,0.0,0.0
